Content
SEND FEEDBACK

Daily
Averages
Monthly
Summary
United States of America

MADERA, CALIFORNIA


Home > North America > United States > California
Elevation: 253 feet     Latitude: 36 59N     Longitude: 120 06W

WEATHER
 
SELECT A DAY
Number of Records: 151,010;   Date Range: 9/2/98 - 8/30/14
 
SHARE

PRINT THIS DATA

[ ← Previous Day ]
WEATHER ALMANAC - MARCH 26, 2013
[ Next Day → ]
[ °C ]   °F
Weather ElementAverageHighLow
Temperature56.4 °F73.9 °F (4:53 pm)44.6 °F (7:21 am)
Dewpoint43.3 °F48 °F (7:53 pm)37 °F (2:53 pm)
Humidity66.8 %93 % (7:29 am)27 % (2:53 pm)
Barometer29.94 in29.98 in (9:53 am)29.89 in (5:53 pm)
Wind Speed6.4 mph9.2 mph (1:53 pm)
Weather ElementAverage
Visibility8.3 mi
Wind DirectionSSW (217.5 °)

Weather ElementTotal
Precipitation---
Heating Degree Days5.8 (Base 65)
Growing Degree Days9.3 (Base 50)
Averaged from 28 records on March 26, 2013
WEATHER CONDITIONS BREAKOUT
WIND DIRECTION BREAKOUT
WEATHER BY HOUR - MARCH 26, 2013
[ °C ]   °F
Local TimeTemperatureDewpointHumidityBarometerVisibilityWind DirectionWind SpeedGust SpeedPrecipitationEventsConditions
1:53 AM50.0 °F44.1 °F80 %29.94 in10.0 miNorthClear
2:53 AM46.9 °F43.0 °F86 %29.94 in10.0 miNorthClear
3:53 AM46.9 °F43.0 °F86 %29.93 in9.0 miNorthClear
4:53 AM46.9 °F43.0 °F86 %29.93 in9.0 miNorthPartly Cloudy
5:53 AM46.9 °F43.0 °F86 %29.94 in10.0 miNorthMostly Cloudy
6:53 AM46.0 °F42.1 °F86 %29.94 in10.0 miNorthScattered Clouds
7:21 AM44.6 °F41.0 °F87 %29.95 in1.8 miNorthMostly Cloudy
7:29 AM44.6 °F42.8 °F93 %29.95 in2.5 miNorthMostly Cloudy
7:37 AM44.6 °F42.8 °F93 %29.96 in3.0 miWNW (290°)3.5 mphMostly Cloudy
7:53 AM46.0 °F43.0 °F89 %29.96 in3.0 miWest (280°)3.5 mphPartly Cloudy
8:05 AM44.6 °F42.8 °F93 %29.96 in2.0 miWest (280°)4.6 mphPartly Cloudy
8:17 AM46.4 °F44.6 °F93 %29.96 in5.0 miWNW (290°)4.6 mphPartly Cloudy
8:53 AM52.0 °F44.1 °F74 %29.96 in10.0 miNW (310°)8.1 mphMostly Cloudy
9:53 AM55.9 °F43.0 °F62 %29.98 in10.0 miWNW (300°)8.1 mphOvercast
10:53 AM61.0 °F45.0 °F56 %29.98 in8.0 miWNW (300°)8.1 mphClear
11:53 AM64.9 °F44.1 °F47 %29.98 in10.0 miNW (310°)8.1 mphMostly Cloudy
12:53 PM69.1 °F43.0 °F39 %29.97 in10.0 miNNW (330°)8.1 mphPartly Cloudy
1:53 PM72.0 °F41.0 °F33 %29.96 in10.0 miWNW (300°)9.2 mphPartly Cloudy
2:53 PM73.0 °F37.0 °F27 %29.93 in10.0 miWest (270°)6.9 mphClear
3:53 PM73.0 °F39.0 °F29 %29.92 in10.0 miWest (280°)6.9 mphClear
4:53 PM73.9 °F39.0 °F28 %29.90 in10.0 miNNW (330°)5.8 mphClear
5:53 PM73.0 °F42.1 °F33 %29.89 in10.0 miNW (310°)6.9 mphClear
6:53 PM69.1 °F46.0 °F44 %29.89 in10.0 miWNW (300°)4.6 mphClear
7:53 PM61.0 °F48.0 °F62 %29.90 in10.0 miNW (310°)5.8 mphClear
8:53 PM59.0 °F46.0 °F62 %29.92 in10.0 miNNW (340°)8.1 mphClear
9:53 PM55.9 °F46.0 °F69 %29.93 in10.0 miNNW (340°)5.8 mphClear
10:53 PM55.9 °F46.9 °F72 %29.93 in10.0 miNW (310°)6.9 mphClear
11:53 PM55.0 °F46.9 °F74 %29.93 in10.0 miNW (310°)4.6 mphClear
Hourly data recorded from KMAE, located miles away from Madera, California







STORIES FROM OUR PARTNERS